AO-07 1 07530U 74089B 14176.84605567 -.00000047 00000-0 -19935-4 0 9997 2 07530 101.4717 158.3924 0011430 278.7021 196.4392 12.53605579812600 FO-29 1 24278U 96046B 14177.01444015 -.00000040 00000-0 -21502-5 0 4049 2 24278 098.5114 189.6559 0349391 274.7313 107.8910 13.53025284881862 SO-33 1 25509U 98061B 14177.15371499 .00000238 00000-0 33027-4 0 7804 2 25509 031.4345 109.5756 0349736 192.9843 298.9020 14.29551663818430 RS-22 1 27939U 03042A 14177.58874675 .00000281 00000-0 60470-4 0 6145 2 27939 097.8107 351.2654 0014589 077.7195 282.5643 14.65221138574103 VO-52 1 28650U 05017B 14177.04504639 .00000708 00000-0 87412-4 0 7747 2 28650 097.5596 181.5680 0026664 127.4656 232.8991 14.85512649494543 HO-68 1 36122U 09072B 14177.68687646 -.00000043 00000-0 00000+0 0 7123 2 36122 100.2487 229.2746 0007400 213.5553 146.5092 13.16316451217687 AO-73 1 39444U 13066AE 14177.69975200 .00000841 00000-0 11921-3 0 1787 2 39444 097.7713 248.0281 0061049 211.4382 148.3101 14.78328494 30872 FUNCUBE-3 1 40025U 14033R 14177.78426723 .00000326 00000-0 44504-4 0 118 2 40025 097.9833 072.4259 0011526 268.8267 091.1626 14.85193769 1015 UO-11 1 14781U 84021B 14177.75698334 .00000244 00000-0 37682-4 0 5290 2 14781 097.8517 237.6982 0009915 144.3216 215.8661 14.81617911629388 AO-16 1 20439U 90005D 14176.83290618 .00000041 00000-0 31098-4 0 539 2 20439 098.5071 114.0060 0011949 130.8555 289.6318 14.32361556275729 LO-19 1 20442U 90005G 14176.80591453 .00000027 00000-0 25629-4 0 9908 2 20442 098.4779 114.6084 0012984 121.1323 239.1136 14.32563397275911 AO-27 1 22825U 93061C 14177.09215922 .00000023 00000-0 26155-4 0 6993 2 22825 098.6623 123.1250 0007258 270.7736 217.6001 14.29724119 82055 IO-26 1 22826U 93061D 14177.34054425 .00000045 00000-0 34505-4 0 4564 2 22826 098.6564 123.5900 0007804 261.2955 098.7343 14.30024971 82228 GO-32 1 25397U 98043D 14177.15981781 .00000011 00000-0 23378-4 0 3780 2 25397 098.4690 134.8129 0000093 355.2943 072.2959 14.23447156829140 NO-44 1 26931U 01043C 14176.99668020 .00000006 00000-0 34203-4 0 6346 2 26931 067.0525 015.7391 0006481 282.7372 077.3004 14.30122867664869 SO-50 1 27607U 02058C 14177.10963696 .00000112 00000-0 37871-4 0 4299 2 27607 064.5550 205.1482 0048735 008.0220 352.1649 14.73785189618794 CO-55 1 27844U 03031E 14177.50488491 .00000089 00000-0 60440-4 0 9569 2 27844 098.6975 186.1423 0008687 243.7882 236.6963 14.21515190569902 CO-57 1 27848U 03031J 14176.93703174 .00000074 00000-0 53970-4 0 8964 2 27848 098.7068 185.2984 0008490 253.6204 167.9784 14.21200916569748 AO-51 1 28375U 04025K 14176.81397993 .00000049 00000-0 27717-4 0 8725 2 28375 098.2506 123.4292 0082155 327.0045 032.6033 14.41393580525144 CP3 1 31129U 07012N 14177.45988782 .00000336 00000-0 84138-4 0 7805 2 31129 097.9341 154.9712 0097699 342.8928 135.7479 14.54711281381389 CO-65 1 32785U 08021C 14177.74499060 .00000528 00000-0 67420-4 0 9858 2 32785 097.6987 228.7283 0014945 153.2422 346.4920 14.85322836333444 PRISM 1 33493U 09002B 14177.75287740 .00001630 00000-0 17708-3 0 451 2 33493 098.2499 353.8080 0019084 055.8523 304.4485 14.89489547293609 SOHLA-1 1 33496U 09002E 14176.83757054 .00000112 00000-0 26587-4 0 3859 2 33496 098.1715 297.7891 0006123 203.2039 271.6561 14.70818314290783 TISAT-1 1 36799U 10035E 14177.78201574 .00001168 00000-0 14104-3 0 3079 2 36799 098.0166 269.8476 0012263 292.7450 067.2433 14.85699171214149 STUDSAT 1 36801U 10035G 14176.35239109 .00003657 00000-0 32478-3 0 8445 2 36801 098.0363 276.6103 0007762 257.9424 142.6352 14.96787849214350 ALMASAT-1 1 38078U 12006B 14177.13348676 .00019988 00000-0 41912-3 0 652 2 38078 069.4685 037.7132 0591239 019.8646 108.9782 14.50583419122934 XATCOBEO 1 38082U 12006F 14177.69771094 .00120420 78227-5 61013-3 0 3463 2 38082 069.4400 289.1464 0193550 318.9224 151.2752 15.59131494125870 CUBEBUG-1 1 39153U 13018D 14177.76952720 .00000543 00000-0 82993-4 0 2419 2 39153 098.0425 258.0508 0017000 323.2907 036.7134 14.77735914 62979 ESTCUBE-1 1 39161U 13021C 14177.75201337 .00000514 00000-0 93994-4 0 2301 2 39161 098.0959 258.5761 0010452 014.4085 345.7394 14.70015436 61003 NANOSATCBR1 1 40024U 14033Q 14177.78422949 .00000510 00000-0 65967-4 0 114 2 40024 097.9824 072.4267 0011550 266.3839 093.6053 14.85202858 1008 MET-2/21 1 22782U 93055A 14176.61638044 .00000018 00000-0 29476-5 0 920 2 22782 082.5487 166.6166 0021163 239.0409 258.1745 13.83738130 51284 OKEAN-4 1 23317U 94066A 14177.31817486 .00000450 00000-0 48982-4 0 5708 2 23317 082.5380 059.3753 0022018 071.3685 039.2579 14.85547767 64468 NOAA-14 1 23455U 94089A 14177.49756569 -.00000015 00000-0 14976-4 0 8021 2 23455 098.7782 260.7690 0009484 020.2481 109.9403 14.13976786 5265 NOAA-15 1 25338U 98030A 14177.46822292 .00000087 00000-0 55794-4 0 2370 2 25338 098.7523 171.3086 0011822 119.6692 031.9234 14.25434762838167 RESURS 1 25394U 98043A 14177.84665584 -.00000047 00000-0 -24610-5 0 6890 2 25394 098.4136 141.8118 0001184 178.2445 238.7886 14.24395221829694 FENGYUN1 1 25730U 99025A 14176.97649214 .00000350 00000-0 21524-3 0 1776 2 25730 098.9132 138.0130 0026642 085.4287 317.1156 14.11922117778769 OKEAN-0 1 25860U 99039A 14176.98695556 .00000191 00000-0 35723-4 0 2867 2 25860 098.0431 140.7992 0001714 084.6763 315.5042 14.75288610803459 NOAA-16 1 26536U 00055A 14177.42829893 .00000104 00000-0 79926-4 0 7335 2 26536 098.9899 237.8330 0011397 155.7961 204.3748 14.13034473709416 NOAA-17 1 27453U 02032A 14177.46321181 .00000010 00000-0 21574-4 0 6333 2 27453 098.3137 176.6873 0012698 143.1721 217.0334 14.24752656624001 NOAA-18 1 28654U 05018A 14177.47419749 -.00000020 00000-0 14378-4 0 1334 2 28654 099.1482 157.1600 0013489 235.1571 285.4795 14.12031600468870 NOAA-19 1 33591U 09005A 14177.49510052 .00000129 00000-0 95141-4 0 2866 2 33591 098.9448 122.5043 0015280 093.7758 014.7515 14.11727431277300 HUBBLE 1 20580U 90037B 14176.88421088 .00000794 00000-0 42068-4 0 425 2 20580 028.4705 339.9582 0003308 020.1905 103.6652 15.05474319126037 ISS 1 25544U 98067A 14177.90493941 .00000408 00000-0 15014-4 0 5778 2 25544 051.6480 051.3869 0004110 175.2517 299.5222 15.50278650892832 CO-58 1 28895U 05043F 14177.79252303 .00000239 00000-0 56432-4 0 8037 2 28895 097.8345 019.1616 0016685 344.9836 015.0869 14.61906824461659 FALCON 1 30776U 07006E 14177.07746502 .00002663 00000-0 13644-3 0 8972 2 30776 035.4296 058.7038 0001806 337.0943 170.3718 15.16381932402089 MAST 1 31126U 07012K 14176.80856605 .00000174 00000-0 48372-4 0 777 2 31126 097.9143 157.2516 0091092 328.1675 149.0022 14.55295181381649 CAPE1 1 31130U 07012P 14177.49846563 .00000292 00000-0 74788-4 0 850 2 31130 097.9354 154.5700 0098269 344.1505 015.6623 14.54463484381160 COMPASS 1 32787U 08021E 14177.71566865 .00001052 00000-0 12039-3 0 9673 2 32787 097.7010 230.9749 0015167 146.1534 214.0654 14.87943644333608 AAUSAT2 1 32788U 08021F 14177.11034613 .00001004 00000-0 11321-3 0 9523 2 32788 097.7022 231.3852 0014657 146.2349 213.9805 14.88656163333570 DO-64 1 32789U 08021G 14176.79327669 .00002494 00000-0 24216-3 0 9928 2 32789 097.7213 237.6592 0013868 133.3161 293.5646 14.93459730333782 CO-66 1 32791U 08021J 14177.07493495 .00000632 00000-0 77075-4 0 9490 2 32791 097.7006 229.0996 0015710 151.5315 208.6762 14.86600181333370 RS-30 1 32953U 08025A 14177.56714416 .00000010 00000-0 00000+0 0 464 2 32953 082.5017 195.3772 0019929 132.9194 227.3560 12.43048535276421 METEOR-M 1 35865U 09049A 14177.72498869 -.00000036 00000-0 29633-5 0 6582 2 35865 098.5492 224.8483 0003409 071.9428 288.2111 14.21924135247697 RS-38 1 35869U 09049E 14177.71726904 -.00000001 00000-0 18705-4 0 5813 2 35869 098.5422 224.6363 0005602 075.9209 071.2210 14.22214223247722 JUGNU 1 37839U 11058B 14177.44432318 .00000310 00000-0 23621-4 0 6432 2 37839 019.9597 198.8310 0019210 086.0875 059.7541 14.12314978139867 SRMSAT 1 37841U 11058D 14176.45894975 .00000293 00000-0 16263-4 0 6463 2 37841 019.9701 224.2947 0012210 015.0995 109.6014 14.10355780139522 RAX-2 1 37853U 11061D 14177.69152233 .00003047 00000-0 21486-3 0 8421 2 37853 101.7129 211.8650 0216230 029.3274 081.3514 14.89551944144071 AUBIESAT 1 37854U 11061E 14176.66393122 .00003236 00000-0 22077-3 0 8238 2 37854 101.7172 212.2371 0214183 029.5056 085.9389 14.90873188143977 HRBE 1 37855U 11061F 14177.04389899 .00003345 00000-0 23052-3 0 8312 2 37855 101.7174 212.1491 0216260 029.7021 001.6075 14.90185253144005 RS-39 1 38051U 11062C 14177.74150796 .00030730 00000-0 35736-3 0 6690 2 38051 051.6242 174.6391 0001031 272.0950 251.8235 15.61443233135603 E-STAR 1 38079U 12006C 14177.66083427 .00038521 38354-5 44026-3 0 8931 2 38079 069.4534 326.6378 0365630 341.0998 123.6228 15.10250896124897 GOLIAT 1 38085U 12006J 14177.80036863 .00035291 37260-5 42911-3 0 1521 2 38085 069.4567 333.5806 0389070 344.6386 014.3217 15.04268478124721 HORYU-2 1 38340U 12025D 14176.85424386 .00000462 00000-0 80875-4 0 8901 2 38340 098.2620 134.1972 0012686 143.4081 216.7992 14.72550471113072 RS-40 1 38735U 12041C 14177.30298756 .00000024 00000-0 10000-3 0 6058 2 38735 082.4775 281.8559 0016295 232.1950 127.7654 12.42560408 86710 PROITERES 1 38756U 12047B 14177.75658103 .00000208 00000-0 38921-4 0 9591 2 38756 098.2288 266.2074 0011978 359.3740 000.7451 14.74979516 96591 BEESAT-3 1 39134U 13015E 14177.28592868 .00002536 00000-0 18699-3 0 6234 2 39134 064.8736 109.7497 0028719 305.5309 054.3128 15.05358972 65037 BEESAT-2 1 39136U 13015G 14177.35359970 .00002205 00000-0 16688-3 0 6081 2 39136 064.8728 110.0382 0028460 305.3190 054.5263 15.04738842 65036 LO-75 1 39382U 13064C 14177.83243018 .00031701 00000-0 64160-3 0 2858 2 39382 040.4966 036.4960 0021406 309.4165 050.4605 15.45483814 33554 ZACUBE-1 1 39417U 13066B 14177.37781420 .00000782 00000-0 11189-3 0 3334 2 39417 097.7767 247.6840 0061742 212.1546 147.5909 14.78120217 32059 TRITON-1 1 39427U 13066M 14177.74624151 .00000489 00000-0 90431-4 0 1883 2 39427 097.7644 243.6649 0117386 219.7934 139.4594 14.65401769 31797 DELFIN3XT 1 39428U 13066N 14177.75136052 .00000841 00000-0 15366-3 0 1899 2 39428 097.7597 242.8790 0127730 221.6457 137.4923 14.63311290 31734 GOMX-1 1 39430U 13066Q 14177.71663734 .00000409 00000-0 86955-4 0 5909 2 39430 097.7564 240.7490 0155580 227.5764 131.2192 14.56837308 31606 MO-76 1 39436U 13066W 14176.96407205 .00005979 00000-0 61803-3 0 2492 2 39436 097.7774 250.4410 0025848 214.7308 145.1943 14.90243302 32185 LO-74 1 39440U 13066AA 14177.36991590 .00000596 00000-0 95492-4 0 1858 2 39440 097.7704 245.9454 0083515 215.0125 144.5545 14.73065194 31931 PUCPSAT-1 1 39442U 13066AC 14177.79584244 .00001150 00000-0 13615-3 0 1832 2 39442 097.7799 250.7617 0033814 212.1188 147.7956 14.86108290 31059 LO-78 1 39569U 98067EN 14177.86832943 .00168294 00000-0 70957-3 0 3620 2 39569 051.6393 037.5708 0003063 178.3362 296.2197 15.84425384 18563 SHINAISAT 1 39572U 14009A 14177.88988530 .00023541 00000-0 19484-3 0 1625 2 39572 065.0123 009.2619 0017047 282.8515 077.0734 15.70055454 18634 OPUSAT 1 39575U 14009D 14177.70326300 .00175282 18321-4 49747-3 0 2007 2 39575 065.0003 003.6623 0016613 281.5812 078.3276 15.92971195 18729 TEIKYOSAT 1 39576U 14009E 14177.89939563 .00032584 00000-0 22844-3 0 1667 2 39576 065.0142 007.8024 0016148 295.4786 064.4698 15.73882415 18664 CO-77 1 39577U 14009F 14177.91081322 .00074154 00000-0 34844-3 0 1765 2 39577 065.0107 005.1978 0016183 291.5711 068.3723 15.82548471 18718 STARS-II 1 39579U 14009H 14116.06110564 .20186783 77451-5 52661-3 0 1329 2 39579 064.9886 219.0071 0013010 293.8065 069.6132 16.44611049 9028 SPROUT 1 39770U 14029E 14177.04262583 .00000523 00000-0 71448-4 0 452 2 39770 097.8716 274.0593 0008362 287.0044 073.0261 14.82610162 4857 QB50p2 1 40032U 14033Y 14177.71869647 .00000176 00000-0 27205-4 0 117 2 40032 097.9829 072.3569 0010993 259.7598 100.2352 14.84805510 1004 /EX